Погода в Мочище

Россия / Новосибирская область     55°09′00″N   82°50′57″E
темп.,
°C
ветер,
м/с
пор.,
м/с
влажн.,
%
обл.,
%
осадки,
мм/ч
давл.,
гПа
погр.,
м
14 мая, пт
пт1401:00+10с388321 0.2 1015223
04:00+11с4969100 0.1 1016457
07:00+10с5106617 0.1 1019426
10:00+12с5656100 0.0 1020913
13:00+15ссз6649100 0.0 10211456
16:00+17ссз463157 0.0 10211696
19:00+16сз562980 0.0 10221547
22:00+12сз224068 0.0 102312
15 мая, сб
сб1501:00+10зюз224499 0.0 102416
04:00+9юз364970 0.0 102395
07:00+10юз41050100 0.0 1023261
10:00+17зюз71035100 0.0 1022737
13:00+17зюз4744100 0.3 1021747
16:00+21зюз710375 0.1 10191361
19:00+23з694189 0.1 10161532
22:00+17юз4959100 0.1 1016157
16 мая, вс
вс1601:00+15юз4969100 0.4 1015157
04:00+14юз358186 0.0 101489
07:00+15юз277938 0.0 1013203
10:00+22зюз46526 0.0 1012663
13:00+26з694194 0.0 10111679
16:00+27з8113654 0.0 10092665
19:00+23ссз6851100 0.1 1011988
22:00+17с4972100 0.0 1013327
17 мая, пн
пн1701:00+14ссв2282100 0.0 101440
04:00+13ююв2385100 0.0 101349
07:00+14ююз378298 0.0 1013255
10:00+20зсз675870 0.0 10121098
13:00+23сз71043100 0.0 10122016
16:00+22сз6949100 0.0 10121214
19:00+23ссз57485 0.4 10121396
22:00+17св23645 0.0 101225
18 мая, вт
вт1801:00+14вюв3880100 0.7 1011194
04:00+14ююв71096100 8.9 1008197
07:00+15ююз41087100 9.1 1005362
10:00+21сз7115762 0.0 10061056
13:00+22сз6104868 0.0 10061911
16:00+21с785546 0.1 10071251
19:00+17ссв666618 0.2 1008848
22:00+11всв588089 0.0 1009416